SAS221 EKCH-LFPG

Flight info

Callsign SAS221
Flight time 1h 43m
Altitude 38000
Route NEXEN T503 GIMRU DCT MICOS DCT NVO DCT IDOSA UN857 TOLVU/N0438F390 DCT RAPOR DCT VEDUS
Aircraft A320/M-SDE3FGHIJ1RWXYZ/ALB1

Departure

Time 2026-04-26 14:37
Airport Copenhagen Kastrup Airport (EKCH)

Arrival

Time 2026-04-26 16:20
Airport Charles de Gaulle International Airport (LFPG)
Time Latitude Longitude Altitude Speed Heading
2026-04-26 14:05 55.62751 12.64477 17 ft 0 kts 102°
2026-04-26 14:20 55.62752 12.64472 17 ft 3 kts 102°
2026-04-26 14:21 55.62756 12.64435 17 ft 4 kts 97°
2026-04-26 14:21 55.62753 12.64394 17 ft 4 kts 48°
2026-04-26 14:21 55.62734 12.64369 21 ft 4 kts 27°
2026-04-26 14:21 55.62715 12.64353 20 ft 4 kts 27°
2026-04-26 14:22 55.62696 12.64337 21 ft 3 kts 21°
2026-04-26 14:22 55.62672 12.64320 19 ft 4 kts 21°
2026-04-26 14:22 55.62652 12.64306 17 ft 3 kts 21°
2026-04-26 14:22 55.62628 12.64286 19 ft 4 kts 32°
2026-04-26 14:23 55.62607 12.64260 18 ft 4 kts 50°
2026-04-26 14:23 55.62596 12.64221 19 ft 4 kts 95°
2026-04-26 14:23 55.62605 12.64182 18 ft 4 kts 123°
2026-04-26 14:23 55.62619 12.64142 21 ft 4 kts 123°
2026-04-26 14:24 55.62630 12.64114 20 ft 0 kts 123°
2026-04-26 14:27 55.62623 12.64131 20 ft 5 kts 123°
2026-04-26 14:27 55.62597 12.64203 19 ft 9 kts 123°
2026-04-26 14:27 55.62557 12.64311 17 ft 12 kts 123°
2026-04-26 14:28 55.62507 12.64445 18 ft 14 kts 123°
2026-04-26 14:28 55.62467 12.64536 17 ft 0 kts 175°
2026-04-26 14:28 55.62459 12.64557 17 ft 5 kts 121°
2026-04-26 14:28 55.62436 12.64631 18 ft 8 kts 120°
2026-04-26 14:29 55.62401 12.64733 17 ft 11 kts 123°
2026-04-26 14:29 55.62354 12.64859 17 ft 14 kts 127°
2026-04-26 14:29 55.62294 12.64879 17 ft 0 kts 207°
2026-04-26 14:29 55.62290 12.64875 17 ft 1 kts 212°
2026-04-26 14:30 55.62280 12.64862 17 ft 0 kts 216°
2026-04-26 14:30 55.62277 12.64858 19 ft 4 kts 216°
2026-04-26 14:30 55.62236 12.64806 18 ft 9 kts 216°
2026-04-26 14:31 55.62223 12.64790 17 ft 0 kts 214°
2026-04-26 14:31 55.62194 12.64755 18 ft 14 kts 215°
2026-04-26 14:32 55.62100 12.64646 18 ft 19 kts 212°
2026-04-26 14:32 55.61977 12.64518 17 ft 22 kts 204°
2026-04-26 14:32 55.61824 12.64531 17 ft 23 kts 169°
2026-04-26 14:32 55.61676 12.64559 17 ft 21 kts 193°
2026-04-26 14:33 55.61547 12.64420 17 ft 23 kts 213°
2026-04-26 14:33 55.61407 12.64258 17 ft 25 kts 213°
2026-04-26 14:33 55.61267 12.64098 17 ft 23 kts 213°
2026-04-26 14:33 55.61126 12.63935 17 ft 25 kts 213°
2026-04-26 14:34 55.60977 12.63763 18 ft 26 kts 213°
2026-04-26 14:34 55.60835 12.63600 18 ft 19 kts 207°
2026-04-26 14:34 55.60742 12.63674 17 ft 12 kts 130°
2026-04-26 14:34 55.60740 12.63680 17 ft 0 kts 130°
2026-04-26 14:35 55.60728 12.63704 17 ft 8 kts 130°
2026-04-26 14:35 55.60680 12.63841 19 ft 15 kts 101°
2026-04-26 14:35 55.60703 12.63908 19 ft 0 kts 40°
2026-04-26 14:36 55.60703 12.63909 19 ft 0 kts 40°
2026-04-26 14:36 55.60913 12.64231 18 ft 79 kts 41°
2026-04-26 14:36 55.61493 12.65121 17 ft 139 kts 41°
2026-04-26 14:37 55.62335 12.66439 119 ft 176 kts 40°
2026-04-26 14:37 55.63265 12.67886 730 ft 180 kts 37°
2026-04-26 14:37 55.64197 12.69414 1444 ft 184 kts 39°
2026-04-26 14:37 55.65160 12.70979 1959 ft 197 kts 38°
2026-04-26 14:38 55.66267 12.72615 2304 ft 217 kts 35°
2026-04-26 14:38 55.67508 12.74407 2688 ft 243 kts 36°
2026-04-26 14:38 55.68751 12.76578 3422 ft 260 kts 52°
2026-04-26 14:38 55.69320 12.78478 4016 ft 268 kts 68°
2026-04-26 14:39 55.69521 12.82930 5282 ft 280 kts 101°
2026-04-26 14:39 55.68757 12.86114 6209 ft 285 kts 126°
2026-04-26 14:39 55.67314 12.88506 7086 ft 287 kts 152°
2026-04-26 14:39 55.65464 12.89882 7897 ft 291 kts 162°
2026-04-26 14:40 55.63496 12.90839 8686 ft 296 kts 175°
2026-04-26 14:40 55.61431 12.90862 9445 ft 299 kts 192°
2026-04-26 14:40 55.59449 12.89926 10204 ft 300 kts 208°
2026-04-26 14:40 55.57622 12.88067 10634 ft 311 kts 224°
2026-04-26 14:41 55.56012 12.85307 10970 ft 326 kts 232°
2026-04-26 14:41 55.54448 12.82418 11622 ft 332 kts 232°
2026-04-26 14:41 55.52835 12.79468 12375 ft 335 kts 231°
2026-04-26 14:41 55.51210 12.76493 13141 ft 338 kts 233°
2026-04-26 14:42 55.49644 12.73402 13911 ft 339 kts 235°
2026-04-26 14:42 55.48120 12.70212 14615 ft 341 kts 236°
2026-04-26 14:42 55.46607 12.66967 15287 ft 344 kts 237°
2026-04-26 14:42 55.45085 12.63696 15955 ft 346 kts 237°
2026-04-26 14:43 55.43550 12.60415 16611 ft 349 kts 237°
2026-04-26 14:43 55.41991 12.57111 17271 ft 352 kts 237°
2026-04-26 14:43 55.40413 12.53793 17936 ft 355 kts 237°
2026-04-26 14:43 55.38817 12.50461 18592 ft 358 kts 237°
2026-04-26 14:44 55.37203 12.47105 19180 ft 361 kts 236°
2026-04-26 14:44 55.35577 12.43728 19787 ft 363 kts 236°
2026-04-26 14:44 55.33934 12.40323 20388 ft 366 kts 236°
2026-04-26 14:44 55.32282 12.36908 20985 ft 369 kts 236°
2026-04-26 14:45 55.30612 12.33457 21566 ft 372 kts 236°
2026-04-26 14:45 55.29500 12.31158 21946 ft 373 kts 236°
2026-04-26 14:45 55.27240 12.26493 22705 ft 377 kts 236°
2026-04-26 14:45 55.25533 12.22974 23280 ft 380 kts 236°
2026-04-26 14:46 55.24397 12.20636 23658 ft 382 kts 236°
2026-04-26 14:46 55.22669 12.17083 24176 ft 384 kts 235°
2026-04-26 14:46 55.20914 12.13541 24663 ft 388 kts 232°
2026-04-26 14:46 55.18867 12.10383 25133 ft 397 kts 222°
2026-04-26 14:47 55.16631 12.07525 25581 ft 399 kts 221°
2026-04-26 14:47 55.14383 12.04663 26062 ft 401 kts 221°
2026-04-26 14:47 55.12129 12.01788 26509 ft 402 kts 222°
2026-04-26 14:47 55.09861 11.98895 26952 ft 405 kts 222°
2026-04-26 14:48 55.07584 11.95988 27383 ft 407 kts 222°
2026-04-26 14:48 55.05294 11.93070 27802 ft 409 kts 221°
2026-04-26 14:48 55.02990 11.90142 28217 ft 411 kts 221°
2026-04-26 14:48 55.00668 11.87199 28630 ft 413 kts 221°
2026-04-26 14:49 54.98337 11.84248 29037 ft 415 kts 221°
2026-04-26 14:49 54.95991 11.81282 29435 ft 418 kts 221°
2026-04-26 14:49 54.93637 11.78308 29818 ft 419 kts 221°
2026-04-26 14:49 54.91270 11.75322 30243 ft 421 kts 221°
2026-04-26 14:50 54.88896 11.72327 30607 ft 423 kts 221°
2026-04-26 14:50 54.86505 11.69321 30933 ft 425 kts 221°
2026-04-26 14:50 54.84102 11.66308 31265 ft 427 kts 221°
2026-04-26 14:50 54.81684 11.63283 31591 ft 430 kts 221°
2026-04-26 14:51 54.79255 11.60247 31940 ft 431 kts 221°
2026-04-26 14:51 54.76830 11.57222 32393 ft 429 kts 221°
2026-04-26 14:51 54.74410 11.54203 32851 ft 428 kts 221°
2026-04-26 14:51 54.71996 11.51190 33309 ft 427 kts 221°
2026-04-26 14:52 54.69589 11.48192 33750 ft 426 kts 221°
2026-04-26 14:52 54.67188 11.45203 34208 ft 425 kts 221°
2026-04-26 14:52 54.64789 11.42221 34609 ft 424 kts 221°
2026-04-26 14:52 54.62403 11.39263 34963 ft 424 kts 221°
2026-04-26 14:53 54.60023 11.36325 35290 ft 424 kts 221°
2026-04-26 14:53 54.57620 11.33364 35597 ft 425 kts 221°
2026-04-26 14:53 54.55216 11.30404 35910 ft 425 kts 220°
2026-04-26 14:53 54.52811 11.27455 36224 ft 425 kts 220°
2026-04-26 14:54 54.50398 11.24513 36516 ft 425 kts 220°
2026-04-26 14:54 54.47980 11.21576 36788 ft 426 kts 220°
2026-04-26 14:54 54.45560 11.18645 37106 ft 425 kts 220°
2026-04-26 14:54 54.43141 11.15718 37401 ft 425 kts 220°
2026-04-26 14:55 54.40725 11.12799 37676 ft 425 kts 220°
2026-04-26 14:55 54.38305 11.09876 37946 ft 425 kts 220°
2026-04-26 14:55 54.35885 11.06954 38209 ft 426 kts 220°
2026-04-26 14:55 54.33463 11.04033 38319 ft 427 kts 220°
2026-04-26 14:56 54.31028 11.01101 38328 ft 428 kts 220°
2026-04-26 14:56 54.26289 10.94993 38325 ft 425 kts 224°
2026-04-26 14:57 54.21765 10.88516 38323 ft 424 kts 225°
2026-04-26 14:57 54.17244 10.82048 38322 ft 424 kts 224°
2026-04-26 14:58 54.12661 10.75711 38322 ft 425 kts 224°
2026-04-26 14:58 54.08045 10.69404 38322 ft 425 kts 224°
2026-04-26 14:59 54.03430 10.63110 38324 ft 425 kts 224°
2026-04-26 14:59 53.98813 10.56816 38318 ft 425 kts 223°
2026-04-26 15:00 53.94200 10.50516 38312 ft 425 kts 223°
2026-04-26 15:00 53.89580 10.44238 38319 ft 426 kts 223°
2026-04-26 15:01 53.84954 10.37977 38327 ft 426 kts 223°
2026-04-26 15:01 53.80327 10.31730 38329 ft 426 kts 223°
2026-04-26 15:02 53.75693 10.25495 38321 ft 425 kts 223°
2026-04-26 15:02 53.71057 10.19284 38321 ft 425 kts 223°
2026-04-26 15:03 53.66422 10.13072 38318 ft 425 kts 223°
2026-04-26 15:03 53.61788 10.06887 38318 ft 425 kts 223°
2026-04-26 15:04 53.57143 10.00706 38297 ft 425 kts 223°
2026-04-26 15:04 53.52503 9.94540 38345 ft 425 kts 223°
2026-04-26 15:05 53.47853 9.88397 38341 ft 425 kts 223°
2026-04-26 15:05 53.43200 9.82265 38343 ft 425 kts 222°
2026-04-26 15:06 53.38540 9.76143 38330 ft 425 kts 222°
2026-04-26 15:06 53.33883 9.70036 38322 ft 425 kts 222°
2026-04-26 15:07 53.26919 9.60925 38324 ft 426 kts 222°
2026-04-26 15:07 53.22247 9.54847 38321 ft 426 kts 222°
2026-04-26 15:08 53.17577 9.48778 38335 ft 426 kts 222°
2026-04-26 15:08 53.12902 9.42715 38328 ft 426 kts 222°
2026-04-26 15:09 53.08224 9.36669 38331 ft 426 kts 222°
2026-04-26 15:09 53.03538 9.30643 38330 ft 426 kts 222°
2026-04-26 15:10 52.99641 9.25647 38332 ft 426 kts 222°
2026-04-26 15:10 52.94156 9.18622 38345 ft 426 kts 222°
2026-04-26 15:11 52.89468 9.12617 38301 ft 426 kts 221°
2026-04-26 15:11 52.84761 9.06629 38315 ft 427 kts 221°
2026-04-26 15:12 52.80045 9.00653 38315 ft 427 kts 221°
2026-04-26 15:12 52.75323 8.94675 38325 ft 428 kts 221°
2026-04-26 15:13 52.70592 8.88701 38331 ft 428 kts 221°
2026-04-26 15:13 52.65856 8.82743 38309 ft 428 kts 221°
2026-04-26 15:14 52.61120 8.76791 38327 ft 429 kts 221°
2026-04-26 15:14 52.56371 8.70851 38332 ft 429 kts 221°
2026-04-26 15:15 52.51617 8.64922 38328 ft 429 kts 221°
2026-04-26 15:15 52.46895 8.59038 38330 ft 429 kts 221°
2026-04-26 15:16 52.42104 8.53089 38320 ft 429 kts 221°
2026-04-26 15:16 52.37366 8.47233 38326 ft 430 kts 221°
2026-04-26 15:17 52.33372 8.42301 38312 ft 430 kts 221°
2026-04-26 15:17 52.27818 8.35450 38317 ft 431 kts 221°
2026-04-26 15:18 52.23030 8.29562 38309 ft 431 kts 220°
2026-04-26 15:18 52.18229 8.23686 38318 ft 432 kts 220°
2026-04-26 15:19 52.13423 8.17824 38328 ft 432 kts 220°
2026-04-26 15:19 52.08610 8.11968 38333 ft 432 kts 220°
2026-04-26 15:20 52.03789 8.06114 38339 ft 432 kts 220°
2026-04-26 15:20 51.98967 8.00272 38315 ft 433 kts 220°
2026-04-26 15:21 51.94142 7.94436 38323 ft 433 kts 220°
2026-04-26 15:21 51.89307 7.88620 38322 ft 433 kts 220°
2026-04-26 15:22 51.84467 7.82804 38332 ft 433 kts 220°
2026-04-26 15:22 51.79625 7.77000 38317 ft 434 kts 220°
2026-04-26 15:23 51.74773 7.71209 38297 ft 434 kts 220°
2026-04-26 15:23 51.69904 7.65419 38305 ft 435 kts 220°
2026-04-26 15:24 51.65027 7.59619 38312 ft 436 kts 220°
2026-04-26 15:24 51.60148 7.53830 38317 ft 436 kts 220°
2026-04-26 15:25 51.56084 7.49025 38303 ft 436 kts 220°
2026-04-26 15:25 51.50364 7.42290 38311 ft 437 kts 220°
2026-04-26 15:26 51.45461 7.36537 38315 ft 437 kts 220°
2026-04-26 15:26 51.40556 7.30787 38317 ft 437 kts 220°
2026-04-26 15:27 51.35648 7.25047 38310 ft 437 kts 220°
2026-04-26 15:27 51.30734 7.19326 38298 ft 437 kts 219°
2026-04-26 15:28 51.25775 7.13574 38285 ft 437 kts 220°
2026-04-26 15:28 51.20882 7.07892 38284 ft 438 kts 220°
2026-04-26 15:29 51.15916 7.02143 38289 ft 439 kts 220°
2026-04-26 15:30 51.06055 6.90779 38292 ft 439 kts 220°
2026-04-26 15:30 51.01093 6.85092 38295 ft 440 kts 219°
2026-04-26 15:31 50.94451 6.77515 38296 ft 440 kts 219°
2026-04-26 15:32 50.87836 6.69981 38296 ft 440 kts 219°
2026-04-26 15:32 50.81958 6.63523 38297 ft 443 kts 212°
2026-04-26 15:33 50.76363 6.59352 38295 ft 445 kts 208°
2026-04-26 15:33 50.70765 6.55309 38303 ft 445 kts 208°
2026-04-26 15:34 50.65091 6.51218 38275 ft 446 kts 208°
2026-04-26 15:34 50.59440 6.47150 38278 ft 447 kts 208°
2026-04-26 15:35 50.53827 6.43110 38276 ft 447 kts 208°
2026-04-26 15:35 50.48167 6.39047 38271 ft 447 kts 208°
2026-04-26 15:36 50.42505 6.35002 38253 ft 448 kts 208°
2026-04-26 15:36 50.36830 6.30957 38258 ft 448 kts 208°
2026-04-26 15:37 50.31154 6.26910 38260 ft 448 kts 208°
2026-04-26 15:37 50.25474 6.22884 38266 ft 448 kts 208°
2026-04-26 15:38 50.19788 6.18875 38249 ft 449 kts 208°
2026-04-26 15:38 50.14102 6.14853 38258 ft 449 kts 208°
2026-04-26 15:39 50.08415 6.10828 38263 ft 449 kts 208°
2026-04-26 15:39 50.03684 6.07503 38261 ft 449 kts 208°
2026-04-26 15:40 49.97026 6.02855 38251 ft 449 kts 208°
2026-04-26 15:40 49.91329 5.98884 38258 ft 449 kts 208°
2026-04-26 15:41 49.85631 5.94917 38255 ft 449 kts 208°
2026-04-26 15:41 49.79949 5.90922 38233 ft 447 kts 212°
2026-04-26 15:42 49.77354 5.88337 38244 ft 440 kts 223°
2026-04-26 15:42 49.75162 5.85182 38225 ft 434 kts 233°
2026-04-26 15:42 49.71987 5.77436 38232 ft 423 kts 252°
2026-04-26 15:43 49.69986 5.68904 37842 ft 423 kts 254°
2026-04-26 15:43 49.67977 5.60296 36999 ft 426 kts 254°
2026-04-26 15:44 49.66969 5.55986 36311 ft 428 kts 255°
2026-04-26 15:44 49.64962 5.47462 35480 ft 419 kts 255°
2026-04-26 15:44 49.63966 5.43259 35022 ft 416 kts 255°
2026-04-26 15:45 49.62007 5.34917 34041 ft 411 kts 255°
2026-04-26 15:45 49.61087 5.30764 33534 ft 407 kts 256°
2026-04-26 15:46 49.59429 5.22528 32597 ft 396 kts 264°
2026-04-26 15:46 49.59194 5.18363 32201 ft 385 kts 274°
2026-04-26 15:46 49.59260 5.14265 31807 ft 381 kts 275°
2026-04-26 15:46 49.59292 5.11576 31524 ft 379 kts 275°
2026-04-26 15:47 49.59322 5.06173 30974 ft 375 kts 274°
2026-04-26 15:47 49.59347 4.98181 30146 ft 371 kts 274°
2026-04-26 15:47 49.59368 4.94221 29744 ft 367 kts 274°
2026-04-26 15:48 49.59395 4.90306 29367 ft 363 kts 274°
2026-04-26 15:48 49.59423 4.86426 28998 ft 361 kts 274°
2026-04-26 15:48 49.59449 4.82574 28636 ft 358 kts 274°
2026-04-26 15:48 49.59476 4.78750 28273 ft 356 kts 273°
2026-04-26 15:49 49.59498 4.74955 27921 ft 353 kts 273°
2026-04-26 15:49 49.59514 4.71185 27480 ft 352 kts 273°
2026-04-26 15:49 49.59559 4.67391 26929 ft 356 kts 273°
2026-04-26 15:49 49.59503 4.63552 26410 ft 361 kts 268°
2026-04-26 15:50 49.59239 4.59699 25947 ft 362 kts 268°
2026-04-26 15:50 49.59409 4.55859 25205 ft 363 kts 289°
2026-04-26 15:50 49.60856 4.52624 22732 ft 392 kts 327°
2026-04-26 15:50 49.63741 4.51720 20129 ft 448 kts 357°
2026-04-26 15:51 49.66693 4.51424 20593 ft 410 kts 347°
2026-04-26 15:51 49.69232 4.49790 20454 ft 389 kts 323°
2026-04-26 15:51 49.71026 4.46830 20346 ft 373 kts 300°
2026-04-26 15:51 49.71799 4.43106 20222 ft 360 kts 275°
2026-04-26 15:52 49.71456 4.39359 20092 ft 350 kts 253°
2026-04-26 15:52 49.70649 4.35876 19944 ft 339 kts 252°
2026-04-26 15:52 49.69855 4.32488 19702 ft 332 kts 252°
2026-04-26 15:52 49.69336 4.30278 19547 ft 329 kts 252°
2026-04-26 15:53 49.68295 4.25860 19224 ft 326 kts 252°
2026-04-26 15:53 49.67520 4.22578 18990 ft 325 kts 252°
2026-04-26 15:53 49.66745 4.19306 18746 ft 324 kts 252°
2026-04-26 15:53 49.65973 4.16047 18507 ft 323 kts 252°
2026-04-26 15:54 49.65201 4.12793 18236 ft 322 kts 252°
2026-04-26 15:54 49.64315 4.09630 17967 ft 323 kts 238°
2026-04-26 15:54 49.62802 4.07063 17706 ft 326 kts 222°
2026-04-26 15:54 49.60938 4.05063 17443 ft 328 kts 212°
2026-04-26 15:55 49.58904 4.03474 17185 ft 327 kts 210°
2026-04-26 15:55 49.57049 4.01509 16922 ft 322 kts 226°
2026-04-26 15:55 49.55640 3.98867 16658 ft 319 kts 238°
2026-04-26 15:55 49.54500 3.95949 16415 ft 317 kts 243°
2026-04-26 15:56 49.53458 3.92973 16158 ft 316 kts 244°
2026-04-26 15:56 49.52408 3.90006 15908 ft 315 kts 243°
2026-04-26 15:56 49.51317 3.87085 15661 ft 315 kts 241°
2026-04-26 15:56 49.50179 3.84213 15417 ft 314 kts 239°
2026-04-26 15:57 49.49013 3.81378 15165 ft 313 kts 239°
2026-04-26 15:57 49.47876 3.78534 14919 ft 311 kts 244°
2026-04-26 15:57 49.47088 3.75458 14685 ft 309 kts 256°
2026-04-26 15:57 49.46732 3.73344 14529 ft 308 kts 257°
2026-04-26 15:58 49.46023 3.69130 14212 ft 307 kts 256°
2026-04-26 15:58 49.45486 3.65960 13967 ft 305 kts 256°
2026-04-26 15:58 49.44945 3.62765 13696 ft 304 kts 257°
2026-04-26 15:58 49.44415 3.59630 13427 ft 302 kts 257°
2026-04-26 15:59 49.43885 3.56511 13158 ft 302 kts 257°
2026-04-26 15:59 49.43354 3.53402 12904 ft 301 kts 256°
2026-04-26 15:59 49.42829 3.50340 12648 ft 299 kts 256°
2026-04-26 15:59 49.42300 3.47255 12392 ft 298 kts 256°
2026-04-26 16:00 49.41777 3.44180 12139 ft 297 kts 256°
2026-04-26 16:00 49.41250 3.41078 11889 ft 296 kts 256°
2026-04-26 16:00 49.40733 3.38026 11691 ft 295 kts 257°
2026-04-26 16:00 49.40219 3.34990 11515 ft 294 kts 256°
2026-04-26 16:01 49.39712 3.31950 11342 ft 293 kts 256°
2026-04-26 16:01 49.39201 3.28929 11177 ft 292 kts 256°
2026-04-26 16:01 49.38691 3.25910 10997 ft 291 kts 256°
2026-04-26 16:01 49.38178 3.22909 10827 ft 291 kts 256°
2026-04-26 16:02 49.37669 3.19907 10660 ft 291 kts 256°
2026-04-26 16:02 49.37160 3.16908 10488 ft 290 kts 256°
2026-04-26 16:02 49.36655 3.13915 10324 ft 290 kts 256°
2026-04-26 16:02 49.36321 3.11934 10214 ft 289 kts 256°
2026-04-26 16:03 49.35652 3.07935 9972 ft 289 kts 256°
2026-04-26 16:03 49.35156 3.04958 9787 ft 288 kts 256°
2026-04-26 16:03 49.34665 3.01982 9604 ft 288 kts 256°
2026-04-26 16:03 49.34183 2.99057 9420 ft 287 kts 256°
2026-04-26 16:04 49.33700 2.96089 9240 ft 286 kts 256°
2026-04-26 16:04 49.33218 2.93138 9066 ft 285 kts 256°
2026-04-26 16:04 49.32736 2.90189 8875 ft 285 kts 256°
2026-04-26 16:04 49.32257 2.87252 8700 ft 284 kts 256°
2026-04-26 16:05 49.31779 2.84319 8522 ft 283 kts 256°
2026-04-26 16:05 49.31305 2.81394 8343 ft 283 kts 256°
2026-04-26 16:05 49.30832 2.78472 8172 ft 282 kts 256°
2026-04-26 16:05 49.30364 2.75563 8003 ft 281 kts 256°
2026-04-26 16:06 49.29895 2.72657 7814 ft 281 kts 256°
2026-04-26 16:06 49.29429 2.69759 7642 ft 280 kts 256°
2026-04-26 16:06 49.28965 2.66867 7464 ft 279 kts 256°
2026-04-26 16:06 49.28506 2.63987 7298 ft 278 kts 256°
2026-04-26 16:07 49.28051 2.61111 7126 ft 277 kts 256°
2026-04-26 16:07 49.27598 2.58246 6957 ft 277 kts 256°
2026-04-26 16:07 49.27143 2.55388 6788 ft 276 kts 256°
2026-04-26 16:07 49.26687 2.52540 6619 ft 275 kts 256°
2026-04-26 16:08 49.26232 2.49695 6434 ft 275 kts 256°
2026-04-26 16:08 49.25931 2.47816 6321 ft 274 kts 256°
2026-04-26 16:08 49.25325 2.44023 6081 ft 274 kts 256°
2026-04-26 16:08 49.24873 2.41195 5902 ft 273 kts 256°
2026-04-26 16:09 49.24422 2.38376 5722 ft 273 kts 256°
2026-04-26 16:09 49.23972 2.35557 5549 ft 271 kts 256°
2026-04-26 16:09 49.23531 2.32798 5369 ft 264 kts 256°
2026-04-26 16:09 49.23101 2.30099 5193 ft 258 kts 256°
2026-04-26 16:10 49.22682 2.27471 5014 ft 251 kts 256°
2026-04-26 16:10 49.22271 2.24905 4836 ft 246 kts 256°
2026-04-26 16:10 49.21865 2.22394 4643 ft 240 kts 256°
2026-04-26 16:10 49.21375 2.19998 4459 ft 233 kts 242°
2026-04-26 16:11 49.20372 2.18124 4271 ft 226 kts 215°
2026-04-26 16:11 49.18986 2.17131 4106 ft 218 kts 189°
2026-04-26 16:11 49.17491 2.17017 4009 ft 216 kts 176°
2026-04-26 16:11 49.15986 2.17060 3984 ft 217 kts 175°
2026-04-26 16:12 49.14476 2.17106 3989 ft 217 kts 175°
2026-04-26 16:12 49.12966 2.17153 3980 ft 217 kts 175°
2026-04-26 16:12 49.10012 2.17246 3980 ft 202 kts 177°
2026-04-26 16:13 49.08634 2.17283 3986 ft 196 kts 175°
2026-04-26 16:13 49.07275 2.17322 4014 ft 195 kts 175°
2026-04-26 16:13 49.05920 2.17366 3997 ft 195 kts 177°
2026-04-26 16:13 49.04567 2.17408 3977 ft 193 kts 176°
2026-04-26 16:14 49.03658 2.17436 3980 ft 194 kts 176°
2026-04-26 16:14 49.02312 2.17586 3986 ft 193 kts 161°
2026-04-26 16:14 49.00724 2.20443 3990 ft 184 kts 92°
2026-04-26 16:15 49.00792 2.22389 3991 ft 184 kts 84°
2026-04-26 16:15 49.00908 2.24328 3922 ft 183 kts 83°
2026-04-26 16:15 49.01020 2.26257 3735 ft 181 kts 83°
2026-04-26 16:16 49.01233 2.30042 3284 ft 175 kts 83°
2026-04-26 16:16 49.01334 2.31846 3048 ft 167 kts 82°
2026-04-26 16:16 49.01429 2.33547 2839 ft 157 kts 83°
2026-04-26 16:16 49.01519 2.35161 2628 ft 149 kts 83°
2026-04-26 16:17 49.01604 2.36684 2428 ft 140 kts 82°
2026-04-26 16:17 49.01685 2.38143 2258 ft 140 kts 83°
2026-04-26 16:17 49.01764 2.39585 2100 ft 134 kts 82°
2026-04-26 16:17 49.01842 2.40981 1912 ft 133 kts 83°
2026-04-26 16:18 49.01918 2.42366 1714 ft 131 kts 83°
2026-04-26 16:18 49.02072 2.45155 1372 ft 131 kts 82°
2026-04-26 16:19 49.02224 2.47933 1019 ft 129 kts 82°
2026-04-26 16:19 49.02302 2.49297 778 ft 128 kts 85°
2026-04-26 16:19 49.02475 2.52024 483 ft 128 kts 84°
2026-04-26 16:20 49.02525 2.53376 375 ft 127 kts 85°
2026-04-26 16:20 49.02629 2.55310 357 ft 56 kts 85°
2026-04-26 16:20 49.02633 2.55782 356 ft 28 kts 104°
2026-04-26 16:21 49.02514 2.55939 361 ft 12 kts 170°
2026-04-26 16:21 49.02508 2.55941 361 ft 0 kts 170°
2026-04-26 16:21 49.02473 2.55950 355 ft 8 kts 171°
2026-04-26 16:22 49.02411 2.55958 358 ft 10 kts 177°
2026-04-26 16:22 49.02329 2.55968 357 ft 14 kts 175°
2026-04-26 16:22 49.02221 2.55981 355 ft 17 kts 175°
2026-04-26 16:22 49.02100 2.56033 355 ft 20 kts 144°
2026-04-26 16:23 49.01963 2.56092 358 ft 21 kts 167°
2026-04-26 16:23 49.01928 2.56288 360 ft 22 kts 85°
2026-04-26 16:23 49.01940 2.56533 355 ft 24 kts 86°
2026-04-26 16:23 49.01954 2.56805 355 ft 27 kts 85°
2026-04-26 16:24 49.01969 2.57069 354 ft 25 kts 84°
2026-04-26 16:24 49.01984 2.57346 354 ft 27 kts 85°
2026-04-26 16:24 49.01996 2.57590 354 ft 24 kts 85°
2026-04-26 16:24 49.01974 2.57852 359 ft 26 kts 119°
2026-04-26 16:25 49.01831 2.57986 356 ft 24 kts 171°
2026-04-26 16:25 49.01653 2.58012 354 ft 27 kts 175°
2026-04-26 16:25 49.01479 2.58030 354 ft 20 kts 175°
2026-04-26 16:25 49.01327 2.58050 361 ft 23 kts 175°
2026-04-26 16:26 49.01153 2.58073 356 ft 26 kts 175°
2026-04-26 16:26 49.00981 2.58095 360 ft 21 kts 176°
2026-04-26 16:26 49.00840 2.58112 357 ft 15 kts 175°
2026-04-26 16:26 49.00811 2.58033 358 ft 9 kts 247°
2026-04-26 16:27 49.00782 2.58016 356 ft 4 kts 190°
2026-04-26 16:27 49.00759 2.57989 359 ft 5 kts 222°
2026-04-26 16:27 49.00738 2.57960 357 ft 0 kts 224°
2026-04-26 16:31 49.00738 2.57959 357 ft 0 kts 224°